This is the latest recevied weather packets stored in our database for station/object AD7ZD. If no packets are shown the sender has not sent any weather packets the latest 10 day(s).
| Time | Temp. | Humidity | Pressure | Rain* | Wind** | Luminosity | Snow |
|---|---|---|---|---|---|---|---|
| 1778258036 | 19.44° C | 34% | 1018 hPa | 0 mm | - | 674 W/m² | - |
| 1778257731 | 18.89° C | 37% | 1017.9 hPa | 0 mm | - | 637 W/m² | - |
| 1778257429 | 18.33° C | 38% | 1017.9 hPa | 0 mm | - | 555 W/m² | - |
| 1778257126 | 18.33° C | 37% | 1018 hPa | 0 mm | - | 515 W/m² | - |
| 1778256823 | 18.33° C | 38% | 1018 hPa | 0 mm | - | 581 W/m² | - |
| 1778256520 | 18.89° C | 39% | 1018 hPa | 0 mm | - | 530 W/m² | - |
| 1778256219 | 17.78° C | 40% | 1017.8 hPa | 0 mm | - | 446 W/m² | - |
| 1778255915 | 17.22° C | 41% | 1018 hPa | 0 mm | - | 428 W/m² | - |
| 1778255612 | 17.22° C | 41% | 1017.9 hPa | 0 mm | - | 389 W/m² | - |
| 1778255309 | 16.67° C | 42% | 1018 hPa | 0 mm | - | 363 W/m² | - |
| 1778255007 | 16.67° C | 41% | 1017.8 hPa | 0 mm | - | 383 W/m² | - |
| 1778254703 | 15.56° C | 44% | 1018 hPa | 0 mm | - | 289 W/m² | - |
| 1778254400 | 15.56° C | 44% | 1017.9 hPa | 0 mm | - | 331 W/m² | - |
| 1778254096 | 15° C | 44% | 1018 hPa | 0 mm | - | 331 W/m² | - |
| 1778253793 | 15° C | 45% | 1018 hPa | 0 mm | - | 294 W/m² | - |
| 1778253489 | 15.56° C | 47% | 1017.9 hPa | 0 mm | - | 314 W/m² | - |
| 1778253186 | 14.44° C | 47% | 1018.2 hPa | 0 mm | - | 286 W/m² | - |
| 1778252882 | 14.44° C | 50% | 1018 hPa | 0 mm | - | 250 W/m² | - |
| 1778252579 | 14.44° C | 51% | 1018 hPa | 0 mm | - | 218 W/m² | - |
| 1778252275 | 13.89° C | 52% | 1018 hPa | 0 mm | - | 174 W/m² | - |
| 1778251971 | 13.89° C | 54% | 1017.8 hPa | 0 mm | - | 199 W/m² | - |
| 1778251668 | 12.78° C | 55% | 1018 hPa | 0 mm | - | 185 W/m² | - |
| 1778251367 | 11.67° C | 59% | 1017.9 hPa | 0 mm | - | 184 W/m² | - |
| 1778251064 | 11.11° C | 61% | 1018 hPa | 0 mm | - | 133 W/m² | - |
| 1778250761 | 10.56° C | 60% | 1017.7 hPa | 0 mm | - | 138 W/m² | - |
* Rain latest hour (hover to see other rain measurements)
** Current wind speed in m/s (hover to see current wind gust speed)